Time,TemperatureF,DewpointF,PressureIn,WindDirection,WindDirectionDegrees,WindSpeedMPH,WindSpeedGustMPH,Humidity,HourlyPrecipIn,Conditions,Clouds,dailyrainin,SoftwareType,DateUTC
2013-06-20 00:01:00,46.3,45.2,30.68,West,272,0.0,0.0,96,0.00,CLR,,0.00,WeatherDisplay:10.37,2013-06-20 04:01:00,
2013-06-20 00:06:00,46.5,45.4,30.68,West,272,0.0,0.0,96,0.00,CLR,,0.00,WeatherDisplay:10.37,2013-06-20 04:06:00,
2013-06-20 00:11:00,46.5,45.7,30.68,West,272,0.0,0.0,97,0.00,CLR,,0.00,WeatherDisplay:10.37,2013-06-20 04:11:00,
2013-06-20 00:16:00,46.4,45.6,30.68,West,272,0.0,0.0,97,0.00,CLR,,0.00,WeatherDisplay:10.37,2013-06-20 04:16:00,
2013-06-20 00:21:00,46.3,45.2,30.68,West,272,0.0,0.0,96,0.00,CLR,,0.00,WeatherDisplay:10.37,2013-06-20 04:21:00,
2013-06-20 00:26:00,46.3,45.5,30.68,West,272,0.0,0.0,97,0.00,CLR,,0.00,WeatherDisplay:10.37,2013-06-20 04:26:00,
2013-06-20 00:31:00,46.1,45.3,30.68,West,272,0.0,0.0,97,0.00,CLR,,0.00,WeatherDisplay:10.37,2013-06-20 04:31:00,
2013-06-20 00:36:00,46.1,45.3,30.69,West,272,0.0,0.0,97,0.00,CLR,,0.00,WeatherDisplay:10.37,2013-06-20 04:36:00,
2013-06-20 00:41:00,46.1,45.3,30.68,West,272,0.0,0.0,97,0.00,CLR,,0.00,WeatherDisplay:10.37,2013-06-20 04:41:00,
2013-06-20 00:46:00,46.1,45.3,30.68,West,272,0.0,0.0,97,0.00,CLR,,0.00,WeatherDisplay:10.37,2013-06-20 04:46:00,
2013-06-20 00:51:00,46.0,45.2,30.69,West,272,0.0,0.0,97,0.00,CLR,,0.00,WeatherDisplay:10.37,2013-06-20 04:51:00,
2013-06-20 00:56:00,45.6,44.8,30.69,West,272,0.0,0.0,97,0.00,CLR,,0.00,WeatherDisplay:10.37,2013-06-20 04:56:00,
2013-06-20 01:01:00,45.5,44.7,30.69,West,272,0.0,0.0,97,0.00,FEW,,0.00,WeatherDisplay:10.37,2013-06-20 05:01:00,
2013-06-20 01:06:00,45.8,45.0,30.69,West,272,0.0,0.0,97,0.00,FEW,,0.00,WeatherDisplay:10.37,2013-06-20 05:06:00,
2013-06-20 01:11:00,45.9,45.1,30.69,West,272,0.0,0.0,97,0.00,FEW,,0.00,WeatherDisplay:10.37,2013-06-20 05:11:00,
2013-06-20 01:16:00,45.8,45.0,30.69,West,272,0.0,0.0,97,0.00,FEW,,0.00,WeatherDisplay:10.37,2013-06-20 05:16:00,
2013-06-20 01:21:00,45.5,44.7,30.69,West,272,0.0,0.0,97,0.00,FEW,,0.00,WeatherDisplay:10.37,2013-06-20 05:21:00,
2013-06-20 01:26:00,45.2,44.4,30.69,West,272,0.0,0.0,97,0.00,FEW,,0.00,WeatherDisplay:10.37,2013-06-20 05:26:00,
2013-06-20 01:31:00,45.3,44.5,30.69,West,272,0.0,0.0,97,0.00,FEW,,0.00,WeatherDisplay:10.37,2013-06-20 05:31:00,
2013-06-20 01:36:00,45.2,44.4,30.69,West,272,0.0,0.0,97,0.00,FEW,,0.00,WeatherDisplay:10.37,2013-06-20 05:36:00,
2013-06-20 01:41:00,45.3,44.5,30.69,West,272,0.0,0.0,97,0.00,FEW,,0.00,WeatherDisplay:10.37,2013-06-20 05:41:00,
2013-06-20 01:46:00,45.2,44.4,30.69,West,272,0.0,0.0,97,0.00,FEW,,0.00,WeatherDisplay:10.37,2013-06-20 05:46:00,
2013-06-20 01:51:00,45.0,44.2,30.69,West,272,0.0,0.0,97,0.00,FEW,,0.00,WeatherDisplay:10.37,2013-06-20 05:51:00,
2013-06-20 01:56:00,44.7,43.9,30.69,West,272,0.0,0.0,97,0.00,FEW,,0.00,WeatherDisplay:10.37,2013-06-20 05:56:00,
2013-06-20 02:02:00,44.5,43.7,30.69,West,272,0.0,0.0,97,0.00,FEW,,0.00,WeatherDisplay:10.37,2013-06-20 06:02:00,
2013-06-20 02:07:00,44.6,43.8,30.69,West,272,0.0,0.0,97,0.00,FEW,,0.00,WeatherDisplay:10.37,2013-06-20 06:07:00,
2013-06-20 02:12:00,44.5,43.7,30.69,West,272,0.0,0.0,97,0.00,FEW,,0.00,WeatherDisplay:10.37,2013-06-20 06:12:00,
2013-06-20 02:17:00,44.3,43.5,30.69,West,272,0.0,0.0,97,0.00,FEW,,0.00,WeatherDisplay:10.37,2013-06-20 06:17:00,
2013-06-20 02:22:00,44.2,43.4,30.69,West,272,0.0,0.0,97,0.00,FEW,,0.00,WeatherDisplay:10.37,2013-06-20 06:22:00,
2013-06-20 02:27:00,44.3,43.5,30.69,West,272,0.0,0.0,97,0.00,FEW,,0.00,WeatherDisplay:10.37,2013-06-20 06:27:00,
2013-06-20 02:32:00,44.5,43.7,30.69,West,272,0.0,0.0,97,0.00,FEW,,0.00,WeatherDisplay:10.37,2013-06-20 06:32:00,
2013-06-20 02:37:00,44.8,44.3,30.69,West,272,0.0,0.0,98,0.00,FEW,,0.00,WeatherDisplay:10.37,2013-06-20 06:37:00,
2013-06-20 02:42:00,44.7,44.2,30.69,West,272,0.0,0.0,98,0.00,FEW,,0.00,WeatherDisplay:10.37,2013-06-20 06:42:00,
2013-06-20 02:47:00,44.4,43.9,30.69,West,272,0.0,0.0,98,0.00,FEW,,0.00,WeatherDisplay:10.37,2013-06-20 06:47:00,
2013-06-20 02:52:00,44.5,44.0,30.69,West,272,0.0,0.0,98,0.00,FEW,,0.00,WeatherDisplay:10.37,2013-06-20 06:52:00,
2013-06-20 02:57:00,44.5,44.0,30.69,West,272,0.0,0.0,98,0.00,FEW,,0.00,WeatherDisplay:10.37,2013-06-20 06:57:00,
2013-06-20 03:02:00,44.4,43.9,30.69,West,272,0.0,0.0,98,0.00,FEW,,0.00,WeatherDisplay:10.37,2013-06-20 07:02:00,
2013-06-20 03:07:00,44.2,43.7,30.69,West,272,0.0,0.0,98,0.00,FEW,,0.00,WeatherDisplay:10.37,2013-06-20 07:07:00,
2013-06-20 03:12:00,44.0,43.5,30.68,West,272,0.0,0.0,98,0.00,FEW,,0.00,WeatherDisplay:10.37,2013-06-20 07:12:00,
2013-06-20 03:17:00,43.6,43.1,30.69,West,272,0.0,0.0,98,0.00,FEW,,0.00,WeatherDisplay:10.37,2013-06-20 07:17:00,
2013-06-20 03:22:00,43.3,42.8,30.68,West,272,0.0,0.0,98,0.00,FEW,,0.00,WeatherDisplay:10.37,2013-06-20 07:22:00,
2013-06-20 03:27:00,43.2,42.7,30.68,West,272,0.0,0.0,98,0.00,FEW,,0.00,WeatherDisplay:10.37,2013-06-20 07:27:00,
2013-06-20 03:32:00,43.4,42.9,30.68,West,272,0.0,0.0,98,0.00,FEW,,0.00,WeatherDisplay:10.37,2013-06-20 07:32:00,
2013-06-20 03:37:00,43.2,42.7,30.69,West,272,0.0,0.0,98,0.00,FEW,,0.00,WeatherDisplay:10.37,2013-06-20 07:37:00,
2013-06-20 03:42:00,43.1,42.6,30.68,West,272,0.0,0.0,98,0.00,FEW,,0.00,WeatherDisplay:10.37,2013-06-20 07:42:00,
2013-06-20 03:47:00,43.2,42.7,30.69,West,272,0.0,0.0,98,0.00,FEW,,0.00,WeatherDisplay:10.37,2013-06-20 07:47:00,
2013-06-20 03:52:00,43.0,42.5,30.69,West,272,0.0,0.0,98,0.00,FEW,,0.00,WeatherDisplay:10.37,2013-06-20 07:52:00,
2013-06-20 03:57:00,42.8,42.3,30.69,West,272,0.0,0.0,98,0.00,FEW,,0.00,WeatherDisplay:10.37,2013-06-20 07:57:00,
2013-06-20 04:02:00,42.5,42.0,30.69,West,272,0.0,0.0,98,0.00,CLR,,0.00,WeatherDisplay:10.37,2013-06-20 08:02:00,
2013-06-20 04:07:00,42.8,42.3,30.69,West,272,0.0,0.0,98,0.00,CLR,,0.00,WeatherDisplay:10.37,2013-06-20 08:07:00,
2013-06-20 04:12:00,42.6,42.1,30.69,West,272,0.0,0.0,98,0.00,CLR,,0.00,WeatherDisplay:10.37,2013-06-20 08:12:00,
2013-06-20 04:17:00,42.3,41.8,30.69,West,272,0.0,0.0,98,0.00,CLR,,0.00,WeatherDisplay:10.37,2013-06-20 08:17:00,
2013-06-20 04:22:00,42.2,41.7,30.69,West,272,0.0,0.0,98,0.00,CLR,,0.00,WeatherDisplay:10.37,2013-06-20 08:22:00,
2013-06-20 04:27:00,42.6,42.1,30.69,West,272,0.0,0.0,98,0.00,CLR,,0.00,WeatherDisplay:10.37,2013-06-20 08:27:00,
2013-06-20 04:32:00,42.4,41.9,30.69,West,272,0.0,0.0,98,0.00,CLR,,0.00,WeatherDisplay:10.37,2013-06-20 08:32:00,
2013-06-20 04:37:00,42.1,41.6,30.69,West,272,0.0,0.0,98,0.00,CLR,,0.00,WeatherDisplay:10.37,2013-06-20 08:37:00,
2013-06-20 04:42:00,41.8,41.3,30.70,West,272,0.0,0.0,98,0.00,CLR,,0.00,WeatherDisplay:10.37,2013-06-20 08:42:00,
2013-06-20 04:47:00,41.7,41.2,30.70,West,272,0.0,0.0,98,0.00,CLR,,0.00,WeatherDisplay:10.37,2013-06-20 08:47:00,
2013-06-20 04:52:00,41.3,40.8,30.70,West,272,0.0,0.0,98,0.00,CLR,,0.00,WeatherDisplay:10.37,2013-06-20 08:52:00,
2013-06-20 04:57:00,41.6,41.1,30.70,West,272,0.0,0.0,98,0.00,CLR,,0.00,WeatherDisplay:10.37,2013-06-20 08:57:00,
2013-06-20 05:02:00,41.9,41.4,30.70,West,272,0.0,0.0,98,0.00,CLR,,0.00,WeatherDisplay:10.37,2013-06-20 09:02:00,
2013-06-20 05:07:00,41.9,41.4,30.71,West,272,0.0,0.0,98,0.00,CLR,,0.00,WeatherDisplay:10.37,2013-06-20 09:07:00,
2013-06-20 05:12:00,41.6,41.1,30.70,West,272,0.0,0.0,98,0.00,CLR,,0.00,WeatherDisplay:10.37,2013-06-20 09:12:00,
2013-06-20 05:17:00,41.6,41.1,30.70,West,272,0.0,0.0,98,0.00,CLR,,0.00,WeatherDisplay:10.37,2013-06-20 09:17:00,
2013-06-20 05:22:00,42.0,41.5,30.70,West,272,0.0,0.0,98,0.00,CLR,,0.00,WeatherDisplay:10.37,2013-06-20 09:22:00,
2013-06-20 05:27:00,41.9,41.4,30.70,West,272,0.0,0.0,98,0.00,CLR,,0.00,WeatherDisplay:10.37,2013-06-20 09:27:00,
2013-06-20 05:32:00,41.9,41.4,30.70,West,272,0.0,0.0,98,0.00,CLR,,0.00,WeatherDisplay:10.37,2013-06-20 09:32:00,
2013-06-20 05:37:00,41.7,41.2,30.70,West,272,0.0,0.0,98,0.00,CLR,,0.00,WeatherDisplay:10.37,2013-06-20 09:37:00,
2013-06-20 05:42:00,41.5,41.0,30.71,West,272,0.0,0.0,98,0.00,CLR,,0.00,WeatherDisplay:10.37,2013-06-20 09:42:00,
2013-06-20 05:47:00,41.1,40.6,30.71,West,272,0.0,0.0,98,0.00,CLR,,0.00,WeatherDisplay:10.37,2013-06-20 09:47:00,
2013-06-20 05:52:00,41.0,40.5,30.71,West,272,0.0,0.0,98,0.00,CLR,,0.00,WeatherDisplay:10.37,2013-06-20 09:52:00,
2013-06-20 05:57:00,40.8,40.3,30.71,West,272,0.0,0.0,98,0.00,CLR,,0.00,WeatherDisplay:10.37,2013-06-20 09:57:00,
2013-06-20 06:02:00,41.6,41.1,30.71,West,272,0.0,0.0,98,0.00,CLR,,0.00,WeatherDisplay:10.37,2013-06-20 10:02:00,
2013-06-20 06:07:00,42.3,41.8,30.71,West,272,0.0,0.0,98,0.00,CLR,,0.00,WeatherDisplay:10.37,2013-06-20 10:07:00,
2013-06-20 06:12:00,43.3,42.8,30.71,West,272,0.0,0.0,98,0.00,CLR,,0.00,WeatherDisplay:10.37,2013-06-20 10:12:00,
2013-06-20 06:17:00,44.2,43.7,30.72,West,272,0.0,0.0,98,0.00,CLR,,0.00,WeatherDisplay:10.37,2013-06-20 10:17:00,
2013-06-20 06:22:00,45.3,44.8,30.72,West,272,0.0,0.0,98,0.00,CLR,,0.00,WeatherDisplay:10.37,2013-06-20 10:22:00,
2013-06-20 06:27:00,46.0,45.5,30.72,West,272,0.0,0.0,98,0.00,CLR,,0.00,WeatherDisplay:10.37,2013-06-20 10:27:00,
2013-06-20 06:32:00,46.2,45.7,30.72,West,272,0.0,0.0,98,0.00,CLR,,0.00,WeatherDisplay:10.37,2013-06-20 10:32:00,
2013-06-20 06:37:00,46.8,46.3,30.72,West,272,0.0,0.0,98,0.00,CLR,,0.00,WeatherDisplay:10.37,2013-06-20 10:37:00,
2013-06-20 06:42:00,47.4,46.9,30.72,West,272,0.0,0.0,98,0.00,CLR,,0.00,WeatherDisplay:10.37,2013-06-20 10:42:00,
2013-06-20 06:47:00,47.6,47.1,30.72,West,272,0.0,0.0,98,0.00,CLR,,0.00,WeatherDisplay:10.37,2013-06-20 10:47:00,
2013-06-20 06:52:00,47.8,47.3,30.72,West,272,0.0,0.0,98,0.00,CLR,,0.00,WeatherDisplay:10.37,2013-06-20 10:52:00,
2013-06-20 06:57:00,48.1,47.6,30.72,West,272,0.0,0.0,98,0.00,CLR,,0.00,WeatherDisplay:10.37,2013-06-20 10:57:00,
2013-06-20 07:02:00,48.4,47.6,30.72,West,272,0.0,0.0,97,0.00,CLR,,0.00,WeatherDisplay:10.37,2013-06-20 11:02:00,
2013-06-20 07:07:00,49.6,48.8,30.73,West,272,0.0,0.0,97,0.00,CLR,,0.00,WeatherDisplay:10.37,2013-06-20 11:07:00,
2013-06-20 07:12:00,51.0,50.2,30.72,West,272,0.0,0.0,97,0.00,CLR,,0.00,WeatherDisplay:10.37,2013-06-20 11:12:00,
2013-06-20 07:17:00,52.3,50.3,30.73,West,272,0.0,0.0,93,0.00,CLR,,0.00,WeatherDisplay:10.37,2013-06-20 11:17:00,
2013-06-20 07:22:00,53.0,49.8,30.73,West,272,0.0,0.0,89,0.00,CLR,,0.00,WeatherDisplay:10.37,2013-06-20 11:22:00,
2013-06-20 07:27:00,52.9,49.1,30.73,West,272,0.0,0.0,87,0.00,CLR,,0.00,WeatherDisplay:10.37,2013-06-20 11:27:00,
2013-06-20 07:32:00,52.1,49.0,30.73,West,272,1.0,1.0,89,0.00,CLR,,0.00,WeatherDisplay:10.37,2013-06-20 11:32:00,
2013-06-20 07:37:00,52.1,49.0,30.73,West,272,0.0,0.0,89,0.00,CLR,,0.00,WeatherDisplay:10.37,2013-06-20 11:37:00,
2013-06-20 07:42:00,52.4,49.6,30.73,West,272,0.0,0.0,90,0.00,CLR,,0.00,WeatherDisplay:10.37,2013-06-20 11:42:00,
2013-06-20 07:47:00,53.0,50.4,30.73,West,272,0.0,0.0,91,0.00,CLR,,0.00,WeatherDisplay:10.37,2013-06-20 11:47:00,
2013-06-20 07:52:00,53.8,50.6,30.73,West,272,0.0,0.0,89,0.00,CLR,,0.00,WeatherDisplay:10.37,2013-06-20 11:52:00,
2013-06-20 07:57:00,55.0,51.2,30.73,West,272,0.0,0.0,87,0.00,CLR,,0.00,WeatherDisplay:10.37,2013-06-20 11:57:00,
2013-06-20 08:02:00,55.0,50.9,30.73,West,272,0.0,0.0,86,0.00,CLR,,0.00,WeatherDisplay:10.37,2013-06-20 12:02:00,
2013-06-20 08:07:00,55.3,50.9,30.73,West,272,0.0,0.0,85,0.00,CLR,,0.00,WeatherDisplay:10.37,2013-06-20 12:07:00,
2013-06-20 08:12:00,55.8,51.7,30.73,West,272,0.0,0.0,86,0.00,CLR,,0.00,WeatherDisplay:10.37,2013-06-20 12:12:00,
2013-06-20 08:17:00,57.0,51.6,30.73,West,272,0.0,0.0,82,0.00,CLR,,0.00,WeatherDisplay:10.37,2013-06-20 12:17:00,
2013-06-20 08:22:00,57.6,51.5,30.73,West,272,1.2,0.0,80,0.00,CLR,,0.00,WeatherDisplay:10.37,2013-06-20 12:22:00,
2013-06-20 08:27:00,58.5,53.0,30.73,West,272,0.0,0.0,82,0.00,CLR,,0.00,WeatherDisplay:10.37,2013-06-20 12:27:00,
2013-06-20 08:32:00,59.1,51.9,30.73,South,184,1.0,1.0,77,0.00,CLR,,0.00,WeatherDisplay:10.37,2013-06-20 12:32:00,
2013-06-20 08:37:00,58.9,51.3,30.74,South,183,1.2,0.0,76,0.00,CLR,,0.00,WeatherDisplay:10.37,2013-06-20 12:37:00,
2013-06-20 08:42:00,59.5,52.3,30.73,ESE,113,2.0,2.0,77,0.00,CLR,,0.00,WeatherDisplay:10.37,2013-06-20 12:42:00,
2013-06-20 08:47:00,59.1,51.5,30.73,ENE,67,1.2,1.2,76,0.00,CLR,,0.00,WeatherDisplay:10.37,2013-06-20 12:47:00,
2013-06-20 08:52:00,59.5,51.9,30.73,East,80,1.2,1.2,76,0.00,CLR,,0.00,WeatherDisplay:10.37,2013-06-20 12:52:00,
2013-06-20 08:57:00,60.7,52.0,30.73,East,81,1.2,1.2,73,0.00,CLR,,0.00,WeatherDisplay:10.37,2013-06-20 12:57:00,
2013-06-20 09:02:00,60.8,51.0,30.73,SE,142,0.0,0.0,70,0.00,CLR,,0.00,WeatherDisplay:10.37,2013-06-20 13:02:00,
2013-06-20 09:07:00,61.3,51.0,30.73,SSE,156,2.3,2.3,69,0.00,CLR,,0.00,WeatherDisplay:10.37,2013-06-20 13:07:00,
2013-06-20 09:12:00,61.3,51.8,30.73,ENE,76,2.3,2.3,71,0.00,CLR,,0.00,WeatherDisplay:10.37,2013-06-20 13:12:00,
2013-06-20 09:17:00,61.7,51.0,30.73,ENE,77,1.2,1.2,68,0.00,CLR,,0.00,WeatherDisplay:10.37,2013-06-20 13:17:00,
2013-06-20 09:22:00,62.2,53.8,30.74,SSE,155,0.0,0.3,74,0.00,CLR,,0.00,WeatherDisplay:10.37,2013-06-20 13:22:00,
2013-06-20 09:27:00,62.9,51.0,30.74,SSE,155,1.0,1.0,65,0.00,CLR,,0.00,WeatherDisplay:10.37,2013-06-20 13:27:00,
2013-06-20 09:32:00,63.3,48.7,30.74,NE,37,2.3,2.3,59,0.00,CLR,,0.00,WeatherDisplay:10.37,2013-06-20 13:32:00,
2013-06-20 09:37:00,63.2,49.5,30.74,East,94,3.0,3.0,61,0.00,CLR,,0.00,WeatherDisplay:10.37,2013-06-20 13:37:00,
2013-06-20 09:42:00,63.3,51.3,30.74,ESE,103,1.0,1.0,65,0.00,CLR,,0.00,WeatherDisplay:10.37,2013-06-20 13:42:00,
2013-06-20 09:47:00,64.2,48.6,30.74,NW,317,1.2,1.2,57,0.00,CLR,,0.00,WeatherDisplay:10.37,2013-06-20 13:47:00,
2013-06-20 09:52:00,64.2,46.2,30.74,WNW,288,0.0,0.1,52,0.00,CLR,,0.00,WeatherDisplay:10.37,2013-06-20 13:52:00,
2013-06-20 09:57:00,64.6,47.1,30.74,SSE,150,2.3,2.3,53,0.00,CLR,,0.00,WeatherDisplay:10.37,2013-06-20 13:57:00,
2013-06-20 10:02:00,65.5,47.4,30.74,SE,145,1.2,0.0,52,0.00,FEW,,0.00,WeatherDisplay:10.37,2013-06-20 14:02:00,
2013-06-20 10:07:00,65.6,50.0,30.74,NNW,338,1.2,1.2,57,0.00,FEW,,0.00,WeatherDisplay:10.37,2013-06-20 14:07:00,
2013-06-20 10:12:00,65.5,46.9,30.74,NW,311,2.0,2.0,51,0.00,FEW,,0.00,WeatherDisplay:10.37,2013-06-20 14:12:00,
2013-06-20 10:17:00,65.6,47.0,30.74,North,1,2.3,2.3,51,0.00,FEW,,0.00,WeatherDisplay:10.37,2013-06-20 14:17:00,
2013-06-20 10:22:00,65.9,49.3,30.74,East,95,2.3,2.3,55,0.00,FEW,,0.00,WeatherDisplay:10.37,2013-06-20 14:22:00,
2013-06-20 10:27:00,66.4,48.7,30.74,ENE,65,2.3,2.3,53,0.00,FEW,,0.00,WeatherDisplay:10.37,2013-06-20 14:27:00,
2013-06-20 10:32:00,66.5,48.8,30.74,West,275,2.3,2.3,53,0.00,FEW,,0.00,WeatherDisplay:10.37,2013-06-20 14:32:00,
2013-06-20 10:37:00,66.6,47.4,30.74,WNW,292,3.5,3.5,50,0.00,FEW,,0.00,WeatherDisplay:10.37,2013-06-20 14:37:00,
2013-06-20 10:42:00,66.6,46.8,30.74,WNW,294,2.3,2.3,49,0.00,FEW,,0.00,WeatherDisplay:10.37,2013-06-20 14:42:00,
2013-06-20 10:47:00,67.3,46.9,30.74,WNW,282,1.2,0.0,48,0.00,FEW,,0.00,WeatherDisplay:10.37,2013-06-20 14:47:00,
2013-06-20 10:52:00,67.6,47.2,30.73,West,268,3.5,3.5,48,0.00,FEW,,0.00,WeatherDisplay:10.37,2013-06-20 14:52:00,
2013-06-20 10:57:00,67.6,47.8,30.74,WSW,253,2.3,2.3,49,0.00,FEW,,0.00,WeatherDisplay:10.37,2013-06-20 14:57:00,
2013-06-20 11:02:00,68.3,48.9,30.73,North,358,0.0,0.0,50,0.00,FEW,,0.00,WeatherDisplay:10.37,2013-06-20 15:02:00,
2013-06-20 11:07:00,69.3,51.4,30.74,West,269,0.0,1.1,53,0.00,FEW,,0.00,WeatherDisplay:10.37,2013-06-20 15:07:00,
2013-06-20 11:12:00,68.9,47.3,30.74,NW,326,3.5,3.5,46,0.00,FEW,,0.00,WeatherDisplay:10.37,2013-06-20 15:12:00,
2013-06-20 11:17:00,69.1,46.3,30.73,South,188,2.3,2.3,44,0.00,FEW,,0.00,WeatherDisplay:10.37,2013-06-20 15:17:00,
2013-06-20 11:22:00,69.0,46.2,30.73,NNW,333,3.5,3.5,44,0.00,FEW,,0.00,WeatherDisplay:10.37,2013-06-20 15:22:00,
2013-06-20 11:27:00,68.9,48.4,30.73,WNW,290,1.2,0.0,48,0.00,FEW,,0.00,WeatherDisplay:10.37,2013-06-20 15:27:00,
2013-06-20 11:32:00,69.5,47.2,30.73,WSW,246,4.0,4.0,45,0.00,FEW,,0.00,WeatherDisplay:10.37,2013-06-20 15:32:00,
2013-06-20 11:37:00,69.2,45.1,30.73,WSW,256,3.5,3.5,42,0.00,FEW,,0.00,WeatherDisplay:10.37,2013-06-20 15:37:00,
2013-06-20 11:42:00,69.7,47.4,30.73,WNW,290,4.0,4.0,45,0.00,FEW,,0.00,WeatherDisplay:10.37,2013-06-20 15:42:00,
2013-06-20 11:47:00,69.5,45.4,30.72,WSW,247,3.5,3.5,42,0.00,FEW,,0.00,WeatherDisplay:10.37,2013-06-20 15:47:00,
2013-06-20 11:52:00,69.7,46.8,30.72,WSW,243,5.8,5.8,44,0.00,FEW,,0.00,WeatherDisplay:10.37,2013-06-20 15:52:00,
2013-06-20 11:57:00,69.7,48.0,30.72,WNW,303,3.5,3.5,46,0.00,FEW,,0.00,WeatherDisplay:10.37,2013-06-20 15:57:00,
2013-06-20 12:02:00,70.1,47.8,30.72,South,184,3.5,3.5,45,0.00,FEW,,0.00,WeatherDisplay:10.37,2013-06-20 16:02:00,
2013-06-20 12:07:00,70.6,50.5,30.72,WNW,283,2.3,2.3,49,0.00,FEW,,0.00,WeatherDisplay:10.37,2013-06-20 16:07:00,
2013-06-20 12:12:00,70.9,50.2,30.72,West,263,4.0,4.0,48,0.00,FEW,,0.00,WeatherDisplay:10.37,2013-06-20 16:12:00,
2013-06-20 12:17:00,70.6,47.6,30.72,West,272,3.5,3.5,44,0.00,FEW,,0.00,WeatherDisplay:10.37,2013-06-20 16:17:00,
2013-06-20 12:22:00,71.1,51.0,30.72,West,269,8.1,8.1,49,0.00,FEW,,0.00,WeatherDisplay:10.37,2013-06-20 16:22:00,
2013-06-20 12:27:00,70.9,48.5,30.72,WNW,283,2.0,2.0,45,0.00,FEW,,0.00,WeatherDisplay:10.37,2013-06-20 16:27:00,
2013-06-20 12:33:00,70.8,46.6,30.71,West,273,3.5,3.5,42,0.00,FEW,,0.00,WeatherDisplay:10.37,2013-06-20 16:33:00,
2013-06-20 12:38:00,71.4,50.7,30.71,WSW,247,2.3,2.3,48,0.00,FEW,,0.00,WeatherDisplay:10.37,2013-06-20 16:38:00,
2013-06-20 12:43:00,72.0,47.6,30.71,WNW,291,3.5,3.5,42,0.00,FEW,,0.00,WeatherDisplay:10.37,2013-06-20 16:43:00,
2013-06-20 12:48:00,71.9,46.9,30.71,NE,39,3.5,3.5,41,0.00,FEW,,0.00,WeatherDisplay:10.37,2013-06-20 16:48:00,
2013-06-20 12:53:00,71.8,47.5,30.71,North,1,2.0,2.0,42,0.00,FEW,,0.00,WeatherDisplay:10.37,2013-06-20 16:53:00,
2013-06-20 12:58:00,72.2,49.7,30.71,WNW,294,4.6,4.6,45,0.00,FEW,,0.00,WeatherDisplay:10.37,2013-06-20 16:58:00,
2013-06-20 13:03:00,72.0,48.9,30.71,SW,236,3.5,3.5,44,0.00,SCT,,0.00,WeatherDisplay:10.37,2013-06-20 17:03:00,
2013-06-20 13:08:00,72.8,49.0,30.71,NNW,346,1.2,1.2,43,0.00,SCT,,0.00,WeatherDisplay:10.37,2013-06-20 17:08:00,
2013-06-20 13:13:00,72.8,48.4,30.71,WNW,297,9.2,9.2,42,0.00,SCT,,0.00,WeatherDisplay:10.37,2013-06-20 17:13:00,
2013-06-20 13:18:00,72.3,47.3,30.71,NW,317,3.5,3.5,41,0.00,SCT,,0.00,WeatherDisplay:10.37,2013-06-20 17:18:00,
2013-06-20 13:23:00,72.5,48.1,30.71,West,262,3.5,3.5,42,0.00,SCT,,0.00,WeatherDisplay:10.37,2013-06-20 17:23:00,
2013-06-20 13:28:00,73.0,49.8,30.71,WSW,255,5.8,5.8,44,0.00,SCT,,0.00,WeatherDisplay:10.37,2013-06-20 17:28:00,
2013-06-20 13:33:00,73.3,50.7,30.71,NW,312,4.6,4.6,45,0.00,SCT,,0.00,WeatherDisplay:10.37,2013-06-20 17:33:00,
2013-06-20 13:38:00,73.5,49.6,30.70,WNW,299,4.6,4.6,43,0.00,SCT,,0.00,WeatherDisplay:10.37,2013-06-20 17:38:00,
2013-06-20 13:43:00,73.4,49.5,30.70,WSW,250,7.0,7.0,43,0.00,SCT,,0.00,WeatherDisplay:10.37,2013-06-20 17:43:00,
2013-06-20 13:48:00,73.7,48.5,30.70,WNW,300,2.0,2.0,41,0.00,SCT,,0.00,WeatherDisplay:10.37,2013-06-20 17:48:00,
2013-06-20 13:53:00,73.7,48.5,30.70,WSW,248,7.0,7.0,41,0.00,SCT,,0.00,WeatherDisplay:10.37,2013-06-20 17:53:00,
2013-06-20 13:58:00,73.5,49.0,30.70,NW,313,3.5,3.5,42,0.00,SCT,,0.00,WeatherDisplay:10.37,2013-06-20 17:58:00,
2013-06-20 14:03:00,73.8,48.0,30.70,ESE,110,3.5,3.5,40,0.00,SCT,,0.00,WeatherDisplay:10.37,2013-06-20 18:03:00,
2013-06-20 14:08:00,74.0,50.1,30.70,SW,229,3.5,3.5,43,0.00,SCT,,0.00,WeatherDisplay:10.37,2013-06-20 18:08:00,
2013-06-20 14:13:00,74.2,49.0,30.70,West,270,4.6,4.6,41,0.00,SCT,,0.00,WeatherDisplay:10.37,2013-06-20 18:13:00,
2013-06-20 14:18:00,74.2,50.9,30.71,SSE,152,2.3,2.3,44,0.00,SCT,,0.00,WeatherDisplay:10.37,2013-06-20 18:18:00,
2013-06-20 14:23:00,74.8,47.5,30.70,NNW,328,1.2,1.2,38,0.00,SCT,,0.00,WeatherDisplay:10.37,2013-06-20 18:23:00,
2013-06-20 14:28:00,75.0,55.6,30.70,NE,47,3.5,3.5,51,0.00,SCT,,0.00,WeatherDisplay:10.37,2013-06-20 18:28:00,
2013-06-20 14:33:00,74.8,55.5,30.71,NW,313,3.5,3.5,51,0.00,SCT,,0.00,WeatherDisplay:10.37,2013-06-20 18:33:00,
2013-06-20 14:38:00,74.6,58.4,30.71,ENE,66,3.5,3.5,57,0.00,SCT,,0.00,WeatherDisplay:10.37,2013-06-20 18:38:00,
2013-06-20 14:43:00,74.5,55.2,30.71,ENE,68,3.5,3.5,51,0.00,SCT,,0.00,WeatherDisplay:10.37,2013-06-20 18:43:00,
2013-06-20 14:48:00,73.7,57.5,30.70,NE,35,2.3,2.3,57,0.00,SCT,,0.00,WeatherDisplay:10.37,2013-06-20 18:48:00,
2013-06-20 14:53:00,73.8,55.6,30.70,NE,48,3.5,3.5,53,0.00,SCT,,0.00,WeatherDisplay:10.37,2013-06-20 18:53:00,
2013-06-20 14:58:00,73.3,55.6,30.70,NE,43,3.5,3.5,54,0.00,SCT,,0.00,WeatherDisplay:10.37,2013-06-20 18:58:00,
2013-06-20 15:03:00,73.1,56.0,30.70,North,3,2.3,2.3,55,0.00,SCT,,0.00,WeatherDisplay:10.37,2013-06-20 19:03:00,
2013-06-20 15:08:00,73.0,53.8,30.71,NNW,328,3.5,3.5,51,0.00,SCT,,0.00,WeatherDisplay:10.37,2013-06-20 19:08:00,
2013-06-20 15:13:00,72.7,51.3,30.70,NW,323,3.5,3.5,47,0.00,SCT,,0.00,WeatherDisplay:10.37,2013-06-20 19:13:00,
2013-06-20 15:18:00,73.3,53.5,30.70,NW,322,2.3,2.3,50,0.00,SCT,,0.00,WeatherDisplay:10.37,2013-06-20 19:18:00,
2013-06-20 15:23:00,73.0,51.6,30.70,NNW,337,3.5,3.5,47,0.00,SCT,,0.00,WeatherDisplay:10.37,2013-06-20 19:23:00,
2013-06-20 15:28:00,73.2,51.2,30.70,NW,304,2.3,2.3,46,0.00,SCT,,0.00,WeatherDisplay:10.37,2013-06-20 19:28:00,
2013-06-20 15:33:00,73.4,50.2,30.71,North,5,2.3,2.3,44,0.00,SCT,,0.00,WeatherDisplay:10.37,2013-06-20 19:33:00,
2013-06-20 15:38:00,73.4,50.2,30.70,NNW,348,2.3,2.3,44,0.00,SCT,,0.00,WeatherDisplay:10.37,2013-06-20 19:38:00,
2013-06-20 15:43:00,73.3,49.4,30.70,NE,46,3.5,3.5,43,0.00,SCT,,0.00,WeatherDisplay:10.37,2013-06-20 19:43:00,
2013-06-20 15:48:00,73.5,50.2,30.70,NNE,30,3.5,3.5,44,0.00,SCT,,0.00,WeatherDisplay:10.37,2013-06-20 19:48:00,
2013-06-20 15:53:00,73.4,48.9,30.70,NNE,25,3.5,3.5,42,0.00,SCT,,0.00,WeatherDisplay:10.37,2013-06-20 19:53:00,
2013-06-20 15:58:00,73.3,49.4,30.70,NW,312,3.5,3.5,43,0.00,SCT,,0.00,WeatherDisplay:10.37,2013-06-20 19:58:00,
2013-06-20 16:03:00,73.1,47.3,30.71,NW,323,3.5,3.5,40,0.00,SCT,,0.00,WeatherDisplay:10.37,2013-06-20 20:03:00,
2013-06-20 16:08:00,73.4,50.2,30.70,NE,41,3.5,3.5,44,0.00,SCT,,0.00,WeatherDisplay:10.37,2013-06-20 20:08:00,
2013-06-20 16:13:00,73.2,46.8,30.70,NE,47,4.6,4.6,39,0.00,SCT,,0.00,WeatherDisplay:10.37,2013-06-20 20:13:00,
2013-06-20 16:18:00,73.0,47.9,30.70,NNE,25,2.3,2.3,41,0.00,SCT,,0.00,WeatherDisplay:10.37,2013-06-20 20:18:00,
2013-06-20 16:23:00,72.5,45.4,30.70,NE,54,5.8,5.8,38,0.00,SCT,,0.00,WeatherDisplay:10.37,2013-06-20 20:23:00,
2013-06-20 16:28:00,72.6,48.8,30.70,NW,313,3.0,3.0,43,0.00,SCT,,0.00,WeatherDisplay:10.37,2013-06-20 20:28:00,
2013-06-20 16:33:00,72.7,45.6,30.70,NNE,23,3.5,3.5,38,0.00,SCT,,0.00,WeatherDisplay:10.37,2013-06-20 20:33:00,
2013-06-20 16:38:00,72.5,41.7,30.70,NE,47,3.5,3.5,33,0.00,SCT,,0.00,WeatherDisplay:10.37,2013-06-20 20:38:00,
2013-06-20 16:43:00,72.4,46.0,30.70,NNW,333,2.3,2.3,39,0.00,SCT,,0.00,WeatherDisplay:10.37,2013-06-20 20:43:00,
2013-06-20 16:48:00,72.8,45.7,30.70,NNW,347,2.3,2.3,38,0.00,SCT,,0.00,WeatherDisplay:10.37,2013-06-20 20:48:00,
2013-06-20 16:53:00,72.8,46.4,30.70,NNW,328,2.3,2.3,39,0.00,SCT,,0.00,WeatherDisplay:10.37,2013-06-20 20:53:00,
2013-06-20 16:58:00,72.9,47.8,30.70,NW,326,2.3,2.3,41,0.00,SCT,,0.00,WeatherDisplay:10.37,2013-06-20 20:58:00,
2013-06-20 17:03:00,73.0,49.2,30.70,NE,55,1.2,0.0,43,0.00,SCT,,0.00,WeatherDisplay:10.37,2013-06-20 21:03:00,
2013-06-20 17:08:00,73.3,47.5,30.70,ENE,58,3.5,3.5,40,0.00,SCT,,0.00,WeatherDisplay:10.37,2013-06-20 21:08:00,
2013-06-20 17:13:00,73.2,47.4,30.70,NNE,18,5.0,5.0,40,0.00,SCT,,0.00,WeatherDisplay:10.37,2013-06-20 21:13:00,
2013-06-20 17:18:00,72.9,45.1,30.70,NNW,345,2.3,2.3,37,0.00,SCT,,0.00,WeatherDisplay:10.37,2013-06-20 21:18:00,
2013-06-20 17:23:00,72.8,45.7,30.70,North,354,3.0,3.0,38,0.00,SCT,,0.00,WeatherDisplay:10.37,2013-06-20 21:23:00,
2013-06-20 17:28:00,72.5,46.1,30.70,NE,56,4.6,4.6,39,0.00,SCT,,0.00,WeatherDisplay:10.37,2013-06-20 21:28:00,
2013-06-20 17:33:00,72.3,46.6,30.71,NNE,22,1.2,1.2,40,0.00,SCT,,0.00,WeatherDisplay:10.37,2013-06-20 21:33:00,
2013-06-20 17:38:00,72.4,45.4,30.71,North,9,2.3,2.3,38,0.00,SCT,,0.00,WeatherDisplay:10.37,2013-06-20 21:38:00,
2013-06-20 17:43:00,72.3,45.9,30.71,NNW,333,3.5,3.5,39,0.00,SCT,,0.00,WeatherDisplay:10.37,2013-06-20 21:43:00,
2013-06-20 17:48:00,72.3,45.3,30.70,North,9,3.5,3.5,38,0.00,SCT,,0.00,WeatherDisplay:10.37,2013-06-20 21:48:00,
2013-06-20 17:53:00,71.9,46.3,30.70,ENE,58,3.5,3.5,40,0.00,SCT,,0.00,WeatherDisplay:10.37,2013-06-20 21:53:00,
2013-06-20 17:58:00,72.0,42.8,30.70,NNW,335,1.2,1.2,35,0.00,SCT,,0.00,WeatherDisplay:10.37,2013-06-20 21:58:00,
2013-06-20 18:03:00,72.1,41.4,30.70,NNW,339,2.3,2.3,33,0.00,SCT,,0.00,WeatherDisplay:10.37,2013-06-20 22:03:00,
2013-06-20 18:08:00,72.0,47.0,30.70,North,352,2.0,2.0,41,0.00,SCT,,0.00,WeatherDisplay:10.37,2013-06-20 22:08:00,
2013-06-20 18:13:00,71.4,40.8,30.70,NE,51,3.0,3.0,33,0.00,SCT,,0.00,WeatherDisplay:10.37,2013-06-20 22:13:00,
2013-06-20 18:18:00,71.4,43.0,30.70,NE,47,1.2,1.2,36,0.00,SCT,,0.00,WeatherDisplay:10.37,2013-06-20 22:18:00,
2013-06-20 18:23:00,71.6,43.9,30.70,North,8,1.2,1.2,37,0.00,SCT,,0.00,WeatherDisplay:10.37,2013-06-20 22:23:00,
2013-06-20 18:28:00,71.5,43.1,30.70,SSE,160,1.2,1.2,36,0.00,SCT,,0.00,WeatherDisplay:10.37,2013-06-20 22:28:00,
2013-06-20 18:33:00,71.2,42.1,30.70,ESE,120,2.3,2.3,35,0.00,SCT,,0.00,WeatherDisplay:10.37,2013-06-20 22:33:00,
2013-06-20 18:38:00,71.2,40.6,30.69,NNE,23,0.0,0.0,33,0.00,SCT,,0.00,WeatherDisplay:10.37,2013-06-20 22:38:00,
2013-06-20 18:43:00,71.7,45.4,30.69,North,3,0.0,0.0,39,0.00,SCT,,0.00,WeatherDisplay:10.37,2013-06-20 22:43:00,
2013-06-20 18:48:00,71.9,44.9,30.69,North,3,0.0,0.0,38,0.00,SCT,,0.00,WeatherDisplay:10.37,2013-06-20 22:48:00,
2013-06-20 18:53:00,71.9,45.6,30.69,North,3,0.0,0.0,39,0.00,SCT,,0.00,WeatherDisplay:10.37,2013-06-20 22:53:00,
2013-06-20 18:58:00,72.0,43.6,30.69,NW,322,1.2,1.2,36,0.00,SCT,,0.00,WeatherDisplay:10.37,2013-06-20 22:58:00,
2013-06-20 19:03:00,71.5,40.9,30.69,ESE,108,2.3,2.3,33,0.00,FEW,,0.00,WeatherDisplay:10.37,2013-06-20 23:03:00,
2013-06-20 19:08:00,71.0,43.4,30.69,SE,127,1.2,1.2,37,0.00,FEW,,0.00,WeatherDisplay:10.37,2013-06-20 23:08:00,
2013-06-20 19:13:00,71.1,40.5,30.69,SE,127,1.2,0.0,33,0.00,FEW,,0.00,WeatherDisplay:10.37,2013-06-20 23:13:00,
2013-06-20 19:18:00,71.8,41.1,30.69,NW,326,0.0,0.0,33,0.00,FEW,,0.00,WeatherDisplay:10.37,2013-06-20 23:18:00,
2013-06-20 19:23:00,72.2,43.8,30.69,NW,326,0.0,0.0,36,0.00,FEW,,0.00,WeatherDisplay:10.37,2013-06-20 23:23:00,
2013-06-20 19:28:00,72.8,43.5,30.69,NW,326,0.0,0.0,35,0.00,FEW,,0.00,WeatherDisplay:10.37,2013-06-20 23:28:00,
2013-06-20 19:33:00,73.3,43.2,30.69,NW,326,0.0,0.0,34,0.00,FEW,,0.00,WeatherDisplay:10.37,2013-06-20 23:33:00,
2013-06-20 19:38:00,72.6,41.0,30.69,NW,326,0.0,0.0,32,0.00,FEW,,0.00,WeatherDisplay:10.37,2013-06-20 23:38:00,
2013-06-20 19:43:00,72.0,46.3,30.69,NW,326,0.0,0.0,40,0.00,FEW,,0.00,WeatherDisplay:10.37,2013-06-20 23:43:00,
2013-06-20 19:48:00,72.0,43.6,30.69,NW,326,0.0,0.0,36,0.00,FEW,,0.00,WeatherDisplay:10.37,2013-06-20 23:48:00,
2013-06-20 19:53:00,70.9,41.9,30.69,NNW,327,1.2,1.2,35,0.00,FEW,,0.00,WeatherDisplay:10.37,2013-06-20 23:53:00,
2013-06-20 19:58:00,69.9,47.0,30.69,NNW,327,0.0,0.0,44,0.00,FEW,,0.00,WeatherDisplay:10.37,2013-06-20 23:58:00,
2013-06-20 20:03:00,69.5,44.1,30.69,NNW,327,0.0,0.0,40,0.00,FEW,,0.00,WeatherDisplay:10.37,2013-06-21 00:03:00,
2013-06-20 20:08:00,69.3,43.9,30.69,NNW,327,0.0,0.0,40,0.00,FEW,,0.00,WeatherDisplay:10.37,2013-06-21 00:08:00,
2013-06-20 20:13:00,69.2,43.8,30.69,NNW,327,0.0,0.0,40,0.00,FEW,,0.00,WeatherDisplay:10.37,2013-06-21 00:13:00,
2013-06-20 20:18:00,68.0,48.1,30.69,NNW,327,0.0,0.0,49,0.00,FEW,,0.00,WeatherDisplay:10.37,2013-06-21 00:18:00,
2013-06-20 20:23:00,66.6,49.9,30.69,NNW,327,0.0,0.0,55,0.00,FEW,,0.00,WeatherDisplay:10.37,2013-06-21 00:23:00,
2013-06-20 20:28:00,65.6,49.0,30.69,NNW,327,0.0,0.0,55,0.00,FEW,,0.00,WeatherDisplay:10.37,2013-06-21 00:28:00,
2013-06-20 20:33:00,64.7,49.6,30.69,NNW,327,0.0,0.0,58,0.00,FEW,,0.00,WeatherDisplay:10.37,2013-06-21 00:33:00,
2013-06-20 20:38:00,63.4,49.3,30.69,NNW,327,0.0,0.0,60,0.00,FEW,,0.00,WeatherDisplay:10.37,2013-06-21 00:38:00,
2013-06-20 20:43:00,62.2,48.1,30.69,NNW,327,0.0,0.0,60,0.00,FEW,,0.00,WeatherDisplay:10.37,2013-06-21 00:43:00,
2013-06-20 20:48:00,61.4,48.3,30.69,NNW,327,0.0,0.0,62,0.00,FEW,,0.00,WeatherDisplay:10.37,2013-06-21 00:48:00,
2013-06-20 20:53:00,60.7,48.0,30.69,NNW,327,0.0,0.0,63,0.00,FEW,,0.00,WeatherDisplay:10.37,2013-06-21 00:53:00,
2013-06-20 20:58:00,60.0,49.0,30.69,NNW,327,0.0,0.0,67,0.00,FEW,,0.00,WeatherDisplay:10.37,2013-06-21 00:58:00,
2013-06-20 21:03:00,59.3,51.0,30.69,NNW,327,0.0,0.0,74,0.00,SCT,,0.00,WeatherDisplay:10.37,2013-06-21 01:03:00,
2013-06-20 21:08:00,58.7,48.9,30.69,NNW,327,0.0,0.0,70,0.00,SCT,,0.00,WeatherDisplay:10.37,2013-06-21 01:08:00,
2013-06-20 21:13:00,58.2,49.6,30.70,NNW,327,0.0,0.0,73,0.00,SCT,,0.00,WeatherDisplay:10.37,2013-06-21 01:13:00,
2013-06-20 21:18:00,57.6,48.6,30.70,NNW,327,0.0,0.0,72,0.00,SCT,,0.00,WeatherDisplay:10.37,2013-06-21 01:18:00,
2013-06-20 21:23:00,57.2,50.1,30.70,NNW,327,0.0,0.0,77,0.00,SCT,,0.00,WeatherDisplay:10.37,2013-06-21 01:23:00,
2013-06-20 21:28:00,56.7,50.6,30.70,NNW,327,0.0,0.0,80,0.00,SCT,,0.00,WeatherDisplay:10.37,2013-06-21 01:28:00,
2013-06-20 21:33:00,56.2,49.8,30.70,NNW,327,0.0,0.0,79,0.00,SCT,,0.00,WeatherDisplay:10.37,2013-06-21 01:33:00,
2013-06-20 21:38:00,55.8,49.4,30.71,NNW,327,0.0,0.0,79,0.00,SCT,,0.00,WeatherDisplay:10.37,2013-06-21 01:38:00,
2013-06-20 21:43:00,55.4,49.3,30.71,NNW,327,0.0,0.0,80,0.00,SCT,,0.00,WeatherDisplay:10.37,2013-06-21 01:43:00,
2013-06-20 21:48:00,55.0,48.9,30.71,NNW,327,0.0,0.0,80,0.00,SCT,,0.00,WeatherDisplay:10.37,2013-06-21 01:48:00,
2013-06-20 21:53:00,54.5,49.1,30.71,NNW,327,0.0,0.0,82,0.00,SCT,,0.00,WeatherDisplay:10.37,2013-06-21 01:53:00,
2013-06-20 21:58:00,54.5,49.1,30.71,NNW,327,0.0,0.0,82,0.00,SCT,,0.00,WeatherDisplay:10.37,2013-06-21 01:58:00,
2013-06-20 22:03:00,54.4,48.7,30.71,NNW,327,0.0,0.0,81,0.00,FEW,,0.00,WeatherDisplay:10.37,2013-06-21 02:03:00,
2013-06-20 22:08:00,54.3,49.6,30.71,NNW,327,0.0,0.0,84,0.00,FEW,,0.00,WeatherDisplay:10.37,2013-06-21 02:08:00,
2013-06-20 22:13:00,53.9,49.2,30.71,NNW,327,0.0,0.0,84,0.00,FEW,,0.00,WeatherDisplay:10.37,2013-06-21 02:13:00,
2013-06-20 22:18:00,53.5,49.4,30.71,NNW,327,0.0,0.0,86,0.00,FEW,,0.00,WeatherDisplay:10.37,2013-06-21 02:18:00,
2013-06-20 22:23:00,53.3,49.5,30.71,NNW,327,0.0,0.0,87,0.00,FEW,,0.00,WeatherDisplay:10.37,2013-06-21 02:23:00,
2013-06-20 22:28:00,53.2,49.4,30.71,NNW,327,0.0,0.0,87,0.00,FEW,,0.00,WeatherDisplay:10.37,2013-06-21 02:28:00,
2013-06-20 22:33:00,53.0,49.2,30.71,NNW,327,0.0,0.0,87,0.00,FEW,,0.00,WeatherDisplay:10.37,2013-06-21 02:33:00,
2013-06-20 22:38:00,52.7,49.2,30.71,NNW,327,0.0,0.0,88,0.00,FEW,,0.00,WeatherDisplay:10.37,2013-06-21 02:38:00,
2013-06-20 22:43:00,52.3,48.9,30.71,NNW,327,0.0,0.0,88,0.00,FEW,,0.00,WeatherDisplay:10.37,2013-06-21 02:43:00,
2013-06-20 22:48:00,52.3,49.5,30.71,NNW,327,0.0,0.0,90,0.00,FEW,,0.00,WeatherDisplay:10.37,2013-06-21 02:48:00,
2013-06-20 22:53:00,52.5,49.7,30.71,NNW,327,0.0,0.0,90,0.00,FEW,,0.00,WeatherDisplay:10.37,2013-06-21 02:53:00,
2013-06-20 22:58:00,52.6,49.8,30.72,NNW,327,0.0,0.0,90,0.00,FEW,,0.00,WeatherDisplay:10.37,2013-06-21 02:58:00,
2013-06-20 23:03:00,52.4,49.8,30.71,NNW,327,0.0,0.0,91,0.00,CLR,,0.00,WeatherDisplay:10.37,2013-06-21 03:03:00,
2013-06-20 23:08:00,52.0,49.5,30.72,NNW,327,0.0,0.0,91,0.00,CLR,,0.00,WeatherDisplay:10.37,2013-06-21 03:08:00,
2013-06-20 23:13:00,52.1,50.1,30.72,NNW,327,0.0,0.0,93,0.00,CLR,,0.00,WeatherDisplay:10.37,2013-06-21 03:13:00,
2013-06-20 23:18:00,52.4,50.1,30.72,NNW,327,0.0,0.0,92,0.00,CLR,,0.00,WeatherDisplay:10.37,2013-06-21 03:18:00,
2013-06-20 23:23:00,52.8,51.1,30.72,NNW,327,1.2,1.2,94,0.00,CLR,,0.00,WeatherDisplay:10.37,2013-06-21 03:23:00,
2013-06-20 23:29:00,52.7,50.7,30.71,NNW,327,0.0,0.0,93,0.00,CLR,,0.00,WeatherDisplay:10.37,2013-06-21 03:29:00,
2013-06-20 23:34:00,52.5,50.5,30.71,NNW,327,0.0,0.0,93,0.00,CLR,,0.00,WeatherDisplay:10.37,2013-06-21 03:34:00,
2013-06-20 23:39:00,52.2,50.5,30.71,NNW,327,0.0,0.0,94,0.00,CLR,,0.00,WeatherDisplay:10.37,2013-06-21 03:39:00,
2013-06-20 23:44:00,52.0,50.0,30.71,NNW,327,0.0,0.0,93,0.00,CLR,,0.00,WeatherDisplay:10.37,2013-06-21 03:44:00,
2013-06-20 23:49:00,51.6,49.6,30.71,NNW,327,0.0,0.0,93,0.00,CLR,,0.00,WeatherDisplay:10.37,2013-06-21 03:49:00,
2013-06-20 23:54:00,51.2,49.2,30.71,NNW,327,0.0,0.0,93,0.00,CLR,,0.00,WeatherDisplay:10.37,2013-06-21 03:54:00,
2013-06-20 23:59:00,50.8,48.8,30.71,NNW,327,0.0,0.0,93,0.00,CLR,,0.00,WeatherDisplay:10.37,2013-06-21 03:59:00,